Weather History for Torrington, WY

Change the Weather History Date:

Saturday, January 26, 2013

  Actual Average Record
Temperature  
Mean Temperature 43 °F 29 °F  
Max Temperature 61 °F 43 °F 68 °F (2002)
Min Temperature 25 °F 15 °F -16 °F (2009)
Degree Days  
Heating Degree Days 22 36  
Month to date heating degree days 957 959  
Since 1 July heating degree days 3439 3715  
Cooling Degree Days 0 0  
Month to date cooling degree days 0 0  
Year to date cooling degree days 0 0  
Moisture  
Dew Point 27 °F    
Average Humidity 57    
Maximum Humidity 85    
Minimum Humidity 28    
Precipitation  
Precipitation 0.00 in 0.01 in 0.16 in (2012)
Month to date precipitation 0.02 0.22  
Year to date precipitation 0.02 0.22  
Sea Level Pressure  
Sea Level Pressure 29.87 in    
Wind  
Wind Speed 7 mph (SSE)    
Max Wind Speed 21 mph    
Max Gust Speed 28 mph    
Visibility 10 miles    
Events      
T = Trace of Precipitation, MM = Missing Value Source: NWS Daily Summary

Daily Weather History Graph

Daily Weather History Graph

Search for Another Location

Airport:

Trip Planner

Search our weather history database for the weather conditions in past years. The results will help you decide how hot, cold, wet, or windy it might be!

Date:

Astronomy

Jan. 26, 2013 Rise Set
Actual Time 7:14 AM MST 5:04 PM MST
Civil Twilight 6:44 AM MST 5:34 PM MST
Nautical Twilight 6:11 AM MST 6:07 PM MST
Astronomical Twilight 5:38 AM MST 6:40 PM MST
Moon 5:02 PM MST (1/26) 6:33 AM MST (1/26)
Length of Visible Light 10h 49m
Length of Day
9h 49m
Full, 100% of the Moon is Illuminated
Jan 26
Full
Jan 26
Full
Feb 3
Last Quarter
Feb 10
New
Feb 17
First Quarter

Hourly Weather History & Observations

Time (MST) Temp. Windchill Dew Point Humidity Pressure Visibility Wind Dir Wind Speed Gust Speed Precip Events Conditions
12:53 AM 30.0 °F - 23.0 °F 75% 30.00 in 10.0 mi Calm Calm - N/A   Clear
1:53 AM 27.0 °F 23.0 °F 21.0 °F 78% 30.00 in 10.0 mi East 3.5 mph - N/A   Clear
2:53 AM 35.1 °F 32.2 °F 26.1 °F 70% 29.96 in 10.0 mi SE 3.5 mph - N/A   Clear
3:53 AM 34.0 °F 28.0 °F 26.1 °F 73% 29.96 in 10.0 mi ESE 6.9 mph - N/A   Clear
4:53 AM 30.9 °F 24.3 °F 26.1 °F 82% 29.98 in 10.0 mi SSE 6.9 mph - N/A   Clear
5:53 AM 33.1 °F 26.9 °F 26.1 °F 75% 29.98 in 10.0 mi SSE 6.9 mph - N/A   Clear
6:53 AM 28.9 °F - 24.1 °F 82% 29.99 in 10.0 mi Calm Calm - N/A   Clear
7:53 AM 35.1 °F 32.2 °F 27.0 °F 72% 29.99 in 10.0 mi SSW 3.5 mph - N/A   Clear
8:53 AM 42.1 °F - 30.9 °F 65% 29.96 in 10.0 mi Calm Calm - N/A   Clear
9:53 AM 51.1 °F - 32.0 °F 48% 29.92 in 10.0 mi SW 10.4 mph - N/A   Clear
10:53 AM 55.9 °F - 30.9 °F 39% 29.90 in 10.0 mi WSW 13.8 mph - N/A   Clear
11:53 AM 59.0 °F - 30.0 °F 33% 29.86 in 10.0 mi West 15.0 mph 24.2 mph N/A   Clear
12:53 PM 60.1 °F - 28.0 °F 30% 29.85 in 10.0 mi West 15.0 mph 20.7 mph N/A   Clear
1:53 PM 60.1 °F - 28.0 °F 30% 29.82 in 10.0 mi West 12.7 mph 19.6 mph N/A   Clear
2:53 PM 59.0 °F - 27.0 °F 29% 29.81 in 10.0 mi WNW 10.4 mph - N/A   Clear
3:53 PM 57.0 °F - 27.0 °F 32% 29.80 in 10.0 mi NW 9.2 mph - N/A   Clear
4:53 PM 51.1 °F - 27.0 °F 39% 29.80 in 10.0 mi NNW 6.9 mph - N/A   Clear
5:53 PM 50.0 °F - 27.0 °F 41% 29.80 in 10.0 mi North 4.6 mph - N/A   Clear
6:53 PM 46.9 °F - 27.0 °F 46% 29.82 in 10.0 mi ESE 5.8 mph - N/A   Clear
7:53 PM 44.1 °F 40.8 °F 27.0 °F 51% 29.80 in 10.0 mi ESE 5.8 mph - N/A   Clear
8:53 PM 41.0 °F 35.2 °F 27.0 °F 57% 29.78 in 10.0 mi East 9.2 mph - N/A   Clear
9:53 PM 42.1 °F 39.2 °F 27.0 °F 55% 29.74 in 10.0 mi ESE 4.6 mph - N/A   Clear
10:53 PM 39.0 °F 34.8 °F 27.0 °F 62% 29.72 in 10.0 mi East 5.8 mph - N/A   Scattered Clouds
11:53 PM 39.9 °F 34.5 °F 27.0 °F 60% 29.68 in 10.0 mi East 8.1 mph - N/A   Overcast